Hays, KS

2:29 AM CDT on September 20, 2019 (GMT -0500)
Hays Regional

Weather History for KHYS - August, 2019

Change the Weather History Date:

Sunday, August 18, 2019

  Actual Average Record
Temperature  
Mean Temperature 76 °F -  
Max Temperature 87 °F 87 °F 102 °F (2011)
Min Temperature 64 °F 62 °F 57 °F (1996)
Cooling Degree Days 10    
Growing Degree Days 26 (Base 50)    
Moisture  
Dew Point 64 °F    
Average Humidity 73    
Maximum Humidity 94    
Minimum Humidity 51    
Precipitation  
Precipitation 1.61 in - - ()
Sea Level Pressure  
Sea Level Pressure 29.88 in    
Wind  
Wind Speed 11 mph (SSE)    
Max Wind Speed 21 mph    
Max Gust Speed -    
Visibility 10 miles    
Events Rain , Thunderstorm    
Averages and records for this station are not official NWS values.
T = Trace of Precipitation, MM = Missing Value Source: NWS Daily Summary

Daily Weather History Graph

Daily Weather History Graph

Search for Another Location

Airport or City:

Astronomy

Aug. 18, 2019 Rise Set
Actual Time 6:53 AM CDT 8:27 PM CDT
Civil Twilight 6:25 AM CDT 8:56 PM CDT
Nautical Twilight 5:51 AM CDT 9:29 PM CDT
Astronomical Twilight 5:14 AM CDT 10:05 PM CDT
Moon 10:25 PM CDT (8/18) 9:38 AM CDT (8/18)
Length of Visible Light 14h 30m
Length of Day
13h 34m
Waning Gibbous, 91% of the Moon is Illuminated
Aug 18
Waning Gibbous
Aug 23
Last Quarter
Aug 30
New
Sep 5
First Quarter
Sep 13
Full

Hourly Weather History & Observations

Time (CDT) Temp. Heat Index Dew Point Humidity Pressure Visibility Wind Dir Wind Speed Gust Speed Precip Events Conditions
12:54 AM 64.4 °F - 62.6 °F 94% 29.82 in 7.0 mi SSW 20.7 mph - 0.83 in Rain , Thunderstorm Heavy Thunderstorms and Rain
12:56 AM 64.0 °F - 62.1 °F 93% 29.77 in 8.0 mi SSW 20.7 mph - 0.85 in Rain , Thunderstorm Heavy Thunderstorms and Rain
1:50 AM 66.2 °F - 62.6 °F 88% 29.77 in 9.0 mi South 10.4 mph - 0.37 in Rain , Thunderstorm Light Rain
1:51 AM 66.0 °F - 63.0 °F 90% 29.72 in 10.0 mi South 11.5 mph - 0.37 in Rain , Thunderstorm Light Rain
2:41 AM 71.6 °F - 64.4 °F 78% 29.86 in 10.0 mi Calm Calm - 0.00 in Rain , Thunderstorm Light Rain
2:56 AM 71.1 °F - 64.9 °F 81% 29.83 in 10.0 mi West 4.6 mph - 0.00 in Thunderstorm Overcast
3:38 AM 64.4 °F - 59.0 °F 83% 29.89 in 9.0 mi North 8.1 mph - 0.31 in Rain , Thunderstorm Thunderstorms and Rain
3:56 AM 66.9 °F - 59.0 °F 76% 29.80 in 10.0 mi SSE 9.2 mph - 0.39 in Rain , Thunderstorm Light Thunderstorms and Rain
4:21 AM 66.2 °F - 60.8 °F 83% 29.83 in 10.0 mi SSE 15.0 mph - 0.00 in Rain Light Rain
4:56 AM 66.9 °F - 60.1 °F 79% 29.77 in 10.0 mi SSE 16.1 mph - 0.00 in   Clear
5:56 AM 64.9 °F - 61.0 °F 87% 29.74 in 10.0 mi SSE 15.0 mph - 0.00 in   Clear
6:56 AM 66.0 °F - 62.1 °F 87% 29.80 in 10.0 mi South 8.1 mph - N/A   Clear
7:56 AM 68.0 °F - 62.1 °F 81% 29.88 in 10.0 mi SSW 5.8 mph - N/A   Clear
8:56 AM 71.1 °F - 63.0 °F 75% 29.97 in 10.0 mi NNW 10.4 mph - N/A   Clear
9:56 AM 75.0 °F - 62.1 °F 64% 30.04 in 10.0 mi NW 9.2 mph - N/A   Clear
10:56 AM 78.1 °F - 62.1 °F 58% 30.04 in 10.0 mi WSW 6.9 mph - N/A   Clear
12:56 PM 81.0 °F 82.2 °F 63.0 °F 54% 30.05 in 10.0 mi SSW 5.8 mph - N/A   Clear
1:56 PM 82.9 °F 84.6 °F 64.9 °F 54% 30.04 in 10.0 mi NE 5.8 mph - N/A   Clear
2:56 PM 84.0 °F 85.8 °F 64.9 °F 53% 30.03 in 10.0 mi ESE 3.5 mph - N/A   Clear
3:56 PM 86.0 °F 88.2 °F 66.0 °F 51% 30.01 in 10.0 mi Calm Calm - N/A   Clear
4:56 PM 87.1 °F 90.6 °F 68.0 °F 53% 30.00 in 10.0 mi Variable 3.5 mph - N/A   Clear
5:56 PM 87.1 °F 89.9 °F 66.9 °F 51% 29.98 in 10.0 mi East 3.5 mph - N/A   Clear
6:56 PM 86.0 °F 89.4 °F 68.0 °F 55% 29.89 in 10.0 mi East 8.1 mph - N/A   Clear
7:56 PM 82.9 °F 87.5 °F 71.1 °F 67% 29.83 in 10.0 mi ENE 6.9 mph - N/A   Clear
8:56 PM 78.1 °F - 70.0 °F 76% 29.80 in 10.0 mi East 9.2 mph - N/A   Clear
9:56 PM 75.9 °F - 70.0 °F 82% 29.79 in 10.0 mi East 9.2 mph - N/A   Clear
10:56 PM 73.9 °F - 70.0 °F 87% 29.79 in 10.0 mi East 9.2 mph - N/A   Clear